Location: Bercimuel
(41.3983°N, 3.5711°W)
Time: 21:50:03
(UTC+00:00)

Cosmos 2151 - Pass Details

Date: 15 May 2026
Orbit: 556 x 575 km, 82.5° (Epoch: 10 June)

Event Time Altitude Azimuth Distance (km) Brightness Sun altitude
Rises 20:51:34 0° 360° (N) 2,767 7.1 -14.0°
Reaches altitude 10° 20:53:53 10° 8° (N) 1,862 6.0 -14.3°
Maximum altitude 20:57:43 38° 77° (ENE) 871 3.5 -14.9°
Enters shadow 20:59:15 27° 123° (ESE) 1,090 3.7 -15.1°
